Tracking 19709 objects as of 17-Jun-2019
HD Live streaming from Space Station
objects crossing your sky now

COSMOS 2236 (GLONASS)

Track COSMOS 2236 (GLONASS) now!
COSMOS 2236 (GLONASS) is classified as:


NORAD ID: 22513
Int'l Code: 1993-010B
Perigee: 19,128.3 km
Apogee: 19,145.4 km
Inclination: 64.1 °
Period: 675.7 minutes
Semi major axis: 25507 km
RCS: 3.1089 m2 (large)
Launch date: February 17, 1993
Source: Commonwealth of Independent States (former USSR) (CIS)
Launch site: TYURATAM MISSILE AND SPACE COMPLEX (TTMTR)
aabbcc
Your satellite tracking list
Your tracking list is empty




NASA's NSSDC Master Catalog

Two Line Element Set (TLE):
1 22513U 93010B   19167.63148880 +.00000047 +00000-0 +00000-0 0  9999
2 22513 064.0664 158.0915 0003354 103.9519 076.7690 02.13104675204878
Source of the keplerian elements: AFSPC